Regional Weather Roundup
Issued by NWS

Home | Current Version | Previous Version | Text Only | Print | Product List | Glossary On
Versions: 1 2 3 4 5 6 7 8 9 10 11 12 13 14 15 16 17 18 19 20 21 22 23 24 25 26 27 28
000
ASUS45 KPSR 250910
RWRAZ

ARIZONA HOURLY REGIONAL WEATHER ROUNDUP
NATIONAL WEATHER SERVICE PHOENIX AZ
200 AM MST FRI MAY 25 2018

NOTE: FAIR INDICATES FEW OR NO CLOUDS BELOW 12,000 FEET WITH NO
SIGNIFICANT WEATHER AND/OR OBSTRUCTIONS TO VISIBILITY.

AZZ001>003-036-251000-
NORTHWEST ARIZONA

CITY           SKY/WX    TMP DP  RH WIND       PRES   REMARKS
BULLHEAD CITY  CLEAR     84  39  20 S13       29.85S
KINGMAN        CLEAR     61  30  31 SE8       30.02F
$$

AZZ004>008-015-016-018-251000-
NORTH CENTRAL ARIZONA

CITY           SKY/WX    TMP DP  RH WIND       PRES   REMARKS
GRAND CANYON   CLEAR     36  13  38 E3        30.23F
WILLIAMS       CLEAR     52  16  24 S8        30.20F
PRESCOTT       CLEAR     51  26  37 S5        30.14F
FLAGSTAFF      CLEAR     45  20  36 CALM      30.24F
PAYSON         CLEAR     63  23  22 E3        30.16F
PAGE           CLEAR     71  22  15 CALM      30.04R
$$

AZZ009>014-017-251000-
NORTHEAST ARIZONA

CITY           SKY/WX    TMP DP  RH WIND       PRES   REMARKS
WINSLOW        CLEAR     56  22  26 VRB3      30.15S
SAINT JOHNS    CLEAR     58  23  26 SE6       30.20R
WINDOW ROCK    CLEAR     62  20  19 VRB3      30.25R
SHOW LOW       CLEAR     48  21  34 E5        30.26R
$$

AZZ540-542>544-546-548-251000-
GREATER PHOENIX AREA

CITY           SKY/WX    TMP DP  RH WIND       PRES   REMARKS
PHOENIX        CLEAR     79  29  16 E3        29.92S
BUCKEYE        CLEAR     68  23  18 CALM      29.94R
LUKE AFB       CLEAR     76  25  15 SW9       29.92S
DEER VALLEY    CLEAR     76  23  14 SW5       29.94F
SCOTTSDALE     CLEAR     77  33  20 NE6       29.96S
MESA-GATEWAY   CLEAR     70  33  25 SE7       29.97R
$$

AZZ539-553-251000-
SOUTHWEST MARICOPA COUNTY AND PINAL COUNTY

CITY           SKY/WX    TMP DP  RH WIND       PRES   REMARKS
CASA GRANDE    CLEAR     70  27  20 E3        29.97S
GILA BEND      FAIR      72  17  12 CALM      29.92S
$$

AZZ503-504-507>509-251000-
SOUTHEAST ARIZONA

CITY           SKY/WX    TMP DP  RH WIND       PRES   REMARKS
TUCSON         CLEAR     68  20  16 S7        30.06F
DAVIS-MONTHAN  CLEAR     65  22  19 SE7       30.04F
NOGALES        CLEAR     58  20  22 E7        30.12F
SIERRA VISTA   CLEAR     63  16  16 CALM      30.17S
DOUGLAS        PTCLDY    60  15  17 N10       30.13F
SAFFORD        CLEAR     73  21  14 NW12      30.03S
$$

AZZ532-251000-
SOUTHWEST ARIZONA

CITY           SKY/WX    TMP DP  RH WIND       PRES   REMARKS
YUMA           CLEAR     71  37  28 W3        29.89S
$$

CAZ041-043-047-048-061-525>527-560>570-251000-
SOUTHERN CALIFORNIA

CITY           SKY/WX    TMP DP  RH WIND       PRES   REMARKS
DOWNTOWN L.A.  CLOUDY    59  53  80 CALM      30.09S
L.A. AIRPORT   CLOUDY    60  53  77 W10       30.10S
SAN DIEGO      CLOUDY    62  51  67 W5        30.11F
BURBANK        CLOUDY    58  53  84 S7        30.08S
ONTARIO        CLOUDY    58  51  78 W10       30.09S
RIVERSIDE      CLOUDY    58  52  80 W7        30.09S
EL CENTRO NAS  CLEAR     73  38  27 W16       29.90R
IMPERIAL       CLEAR     71  40  32 NW6       29.88R
BLYTHE         PTCLDY    77  35  21 SW8       29.88F HAZE
NEEDLES        CLEAR     82  42  24 S7        29.88R
$$

NVZ020-UTZ003-251000-
SOUTHERN NEVADA-UTAH

CITY           SKY/WX    TMP DP  RH WIND       PRES   REMARKS
LAS VEGAS      CLEAR     78  42  27 S7        29.89F
SALT LAKE CITY NOT AVBL
$$

NMZ009-TXZ055-251000-
NEW MEXICO-WEST TEXAS

CITY           SKY/WX    TMP DP  RH WIND       PRES   REMARKS
ALBUQUERQUE    CLEAR     65  15  14 S7        30.11S
EL PASO        PTCLDY    73  49  42 SE5       30.05F
$$


........................KEY........................
SKY/WX - SKY CONDITION/WEATHER
TMP    - TEMPERATURE IN FAHRENHEIT
DP     - DEW POINT IN FAHRENHEIT
RH     - RELATIVE HUMIDITY IN PERCENT
WIND   - DIRECTION AND SPEED IN MILES PER HOUR (MPH)
VRB    - VARIABLE WIND DIRECTION
PRES   - MEAN SEA LEVEL PRESSURE IN INCHES OF MERCURY
         F - FALLING PRESSURE   R - RISING PRESSURE
         S - STEADY PRESSURE
VSB    - VISIBILITY IN MILES
HX     - HEAT INDEX IN FAHRENHEIT
WCI    - WIND CHILL INDEX IN FAHRENHEIT
TC     - TEMPERATURE IN CELSIUS WHICH IS ALSO KNOWN AS
         TEMPERATURE IN CENTIGRADE
AFB    - AIR FORCE BASE
         LUKE AFB IS LUKE AIR FORCE BASE
         DAVIS-MONTHAN IS DAVIS-MONTHAN AIR FORCE BASE
NAS    - NAVAL AIR STATION
         EL CENTRO NAS IS EL CENTRO NAVAL AIR STATION
N/A    - NOT AVAILABLE





USA.gov is the U.S. government's official web portal to all federal, state and local government web resources and services.